Oshkosh, WI

5:18 PM CST on December 18, 2017 (GMT -0600)
Wittman Regional

Weather History for KOSH - June, 2013

Change the Weather History Date:

Saturday, June 15, 2013

  Actual Average Record
Temperature  
Mean Temperature 67 °F -  
Max Temperature 78 °F 77 °F 95 °F (1987)
Min Temperature 57 °F 57 °F 39 °F (1961)
Cooling Degree Days 2    
Growing Degree Days 17 (Base 50)    
Moisture  
Dew Point 61 °F    
Average Humidity 82    
Maximum Humidity 94    
Minimum Humidity 62    
Precipitation  
Precipitation 0.68 in - - ()
Sea Level Pressure  
Sea Level Pressure 29.87 in    
Wind  
Wind Speed 8 mph (South)    
Max Wind Speed 22 mph    
Max Gust Speed 30 mph    
Visibility 8 miles    
Events Rain , Thunderstorm    
Averages and records for this station are not official NWS values.
T = Trace of Precipitation, MM = Missing Value Source: NWS Daily Summary

Daily Weather History Graph

Daily Weather History Graph

Search for Another Location

Airport or City:

Trip Planner

Search our weather history database for the weather conditions in past years. The results will help you decide how hot, cold, wet, or windy it might be!

Date:

Astronomy

Jun. 15, 2013 Rise Set
Actual Time 5:10 AM CDT 8:38 PM CDT
Civil Twilight 4:34 AM CDT 9:15 PM CDT
Nautical Twilight 3:46 AM CDT 10:02 PM CDT
Astronomical Twilight 2:46 AM CDT 11:03 PM CDT
Moon 11:58 AM CDT (6/15) 12:02 AM CDT (6/15)
Length of Visible Light 16h 40m
Length of Day
15h 28m
Waxing Crescent, 40% of the Moon is Illuminated
Jun 15
Waxing Crescent
Jun 16
First Quarter
Jun 23
Full
Jun 29
Last Quarter
Jul 8
New

Hourly Weather History & Observations

Time (CDT) Temp. Dew Point Humidity Pressure Visibility Wind Dir Wind Speed Gust Speed Precip Events Conditions
12:53 AM 60.1 °F 46.9 °F 62% - 10.0 mi SE 4.6 mph - N/A   Overcast
1:53 AM 57.9 °F 46.9 °F 67% - 10.0 mi South 8.1 mph - N/A   Clear
2:53 AM 60.1 °F 48.0 °F 64% - 10.0 mi SSW 8.1 mph - N/A   Overcast
3:53 AM 59.0 °F 50.0 °F 72% - 8.0 mi Calm Calm - 0.01 in Rain Light Rain
4:53 AM 57.9 °F 53.1 °F 84% - 10.0 mi ESE 6.9 mph - 0.02 in Rain Light Rain
5:53 AM 59.0 °F 55.0 °F 87% - 10.0 mi South 5.8 mph - 0.00 in   Scattered Clouds
6:53 AM 61.0 °F 57.0 °F 87% - 10.0 mi SSE 11.5 mph - N/A   Clear
7:53 AM 61.0 °F 57.9 °F 90% - 4.0 mi SSE 13.8 mph 19.6 mph 0.03 in Rain Light Rain
8:09 AM 60.8 °F 57.2 °F 88% - 4.0 mi NE 18.4 mph 23.0 mph 0.02 in Rain Light Rain
8:18 AM 62.6 °F 57.2 °F 82% - 5.0 mi ENE 10.4 mph - 0.02 in Rain Light Rain
8:35 AM 62.6 °F 59.0 °F 88% - 10.0 mi SE 10.4 mph - 0.02 in   Overcast
8:53 AM 64.0 °F 60.1 °F 87% - 10.0 mi SE 4.6 mph - 0.02 in   Mostly Cloudy
9:04 AM 64.4 °F 60.8 °F 88% - 10.0 mi SE 5.8 mph - N/A   Scattered Clouds
9:53 AM 66.9 °F 60.1 °F 79% - 10.0 mi SSW 4.6 mph - N/A   Clear
10:53 AM 68.0 °F 61.0 °F 78% 29.94 in 10.0 mi South 6.9 mph - N/A   Scattered Clouds
11:53 AM 71.1 °F 63.0 °F 75% 29.95 in 10.0 mi South 11.5 mph - N/A   Mostly Cloudy
12:34 PM 71.6 °F 62.6 °F 73% 29.97 in 10.0 mi South 10.4 mph - N/A   Mostly Cloudy
12:53 PM 71.1 °F 63.0 °F 75% 29.94 in 10.0 mi South 10.4 mph - N/A   Mostly Cloudy
1:18 PM 71.6 °F 62.6 °F 73% 29.95 in 10.0 mi South 9.2 mph - N/A   Mostly Cloudy
1:53 PM 71.1 °F 64.0 °F 78% 29.95 in 10.0 mi SSW 9.2 mph - N/A   Overcast
2:53 PM 73.0 °F 64.9 °F 76% 29.91 in 10.0 mi SSW 8.1 mph - N/A   Overcast
3:53 PM 75.0 °F 64.9 °F 71% 29.87 in 10.0 mi SSW 8.1 mph - N/A   Clear
4:53 PM 77.0 °F 66.9 °F 71% 29.84 in 10.0 mi South 9.2 mph - N/A   Clear
5:53 PM 77.0 °F 66.0 °F 69% 29.81 in 10.0 mi SSW 9.2 mph - N/A   Clear
6:53 PM 75.9 °F 66.9 °F 74% 29.81 in 10.0 mi South 12.7 mph - N/A   Scattered Clouds
7:53 PM 73.9 °F 66.9 °F 79% 29.77 in 10.0 mi South 8.1 mph - N/A   Overcast
8:13 PM 73.4 °F 68.0 °F 83% 29.80 in 6.0 mi Calm Calm - 0.03 in Rain , Thunderstorm Light Thunderstorms and Rain
8:53 PM 72.0 °F 68.0 °F 87% 29.77 in 7.0 mi SSE 6.9 mph - 0.09 in Rain , Thunderstorm Light Thunderstorms and Rain
9:22 PM 68.0 °F 64.4 °F 88% 29.83 in 1.8 mi NNW 11.5 mph 29.9 mph 0.27 in Rain , Thunderstorm Thunderstorms and Rain
9:28 PM 66.2 °F 64.4 °F 94% 29.86 in 0.8 mi WNW 17.3 mph 26.5 mph 0.41 in Rain , Thunderstorm Heavy Thunderstorms and Rain
9:30 PM 66.2 °F 64.4 °F 94% 29.84 in 0.8 mi NW 21.9 mph 28.8 mph 0.45 in Rain , Thunderstorm Heavy Thunderstorms and Rain
9:33 PM 66.2 °F 64.4 °F 94% 29.84 in 1.2 mi NW 17.3 mph 28.8 mph 0.47 in Rain , Thunderstorm Heavy Thunderstorms and Rain
9:39 PM 66.2 °F 64.4 °F 94% 29.84 in 3.0 mi NNW 15.0 mph 26.5 mph 0.48 in Rain , Thunderstorm Thunderstorms and Rain
9:53 PM 66.0 °F 64.0 °F 93% - 8.0 mi NNW 8.1 mph 19.6 mph 0.50 in Rain , Thunderstorm Light Thunderstorms and Rain
10:07 PM 66.2 °F 64.4 °F 94% - 9.0 mi Calm Calm - 0.01 in   Mostly Cloudy
10:53 PM 66.0 °F 63.0 °F 90% - 10.0 mi West 4.6 mph - 0.01 in   Mostly Cloudy
11:53 PM 64.9 °F 63.0 °F 93% - 10.0 mi Calm Calm - N/A   Clear